Rush City, MN

1:14 PM CDT on March 26, 2017 (GMT -0500)
Rush City Regional

Weather History for KROS - May, 2013

Change the Weather History Date:

Monday, May 13, 2013

  Actual Average (KCBG) Record (KCBG)
Temperature  
Mean Temperature 48 °F -  
Max Temperature 65 °F 65 °F 87 °F (1958)
Min Temperature 32 °F 42 °F 23 °F (1997)
Degree Days  
Heating Degree Days 16    
Moisture  
Dew Point 28 °F    
Average Humidity 46    
Maximum Humidity 65    
Minimum Humidity 26    
Precipitation  
Precipitation 0.00 in - - ()
Sea Level Pressure  
Sea Level Pressure 29.95 in    
Wind  
Wind Speed 6 mph (SE)    
Max Wind Speed 18 mph    
Max Gust Speed 30 mph    
Visibility 10 miles    
Events      
Averages and records for this station are not official NWS values.
T = Trace of Precipitation, MM = Missing Value Source: NWS Daily Summary

Daily Weather History Graph

Daily Weather History Graph

Search for Another Location

Airport or City:

Trip Planner

Search our weather history database for the weather conditions in past years. The results will help you decide how hot, cold, wet, or windy it might be!

Date:

Astronomy

May. 13, 2013 Rise Set
Actual Time 5:42 AM CDT 8:34 PM CDT
Civil Twilight 5:08 AM CDT 9:09 PM CDT
Nautical Twilight 4:24 AM CDT 9:53 PM CDT
Astronomical Twilight 3:32 AM CDT 10:45 PM CDT
Moon 8:28 AM CDT (5/13) 11:44 PM CDT (5/13)
Length of Visible Light 16h 00m
Length of Day
14h 51m
Waxing Crescent, 12% of the Moon is Illuminated
May 13
Waxing Crescent
May 17
First Quarter
May 24
Full
May 31
Last Quarter
Jun 8
New

Hourly Weather History & Observations

Time (CDT) Temp. Windchill Dew Point Humidity Pressure Visibility Wind Dir Wind Speed Gust Speed Precip Events Conditions
12:15 AM 33.4 °F - 19.9 °F 58% 30.11 in 10.0 mi Calm Calm - N/A   Clear
12:36 AM 32.9 °F - 19.4 °F 58% 30.11 in 10.0 mi Calm Calm - N/A   Clear
12:55 AM 34.2 °F - 18.5 °F 53% 30.11 in 10.0 mi Calm Calm - N/A   Clear
1:16 AM 33.6 °F - 23.0 °F 65% 30.11 in 10.0 mi Calm Calm - N/A   Scattered Clouds
1:35 AM 32.2 °F - 21.2 °F 64% 30.11 in 10.0 mi Calm Calm - N/A   Scattered Clouds
1:56 AM 37.6 °F 34.0 °F 23.2 °F 56% 30.11 in 10.0 mi ENE 4.6 mph - N/A   Scattered Clouds
2:15 AM 37.6 °F 35.1 °F 23.2 °F 56% 30.10 in 10.0 mi East 3.5 mph - N/A   Clear
2:36 AM 36.1 °F 33.5 °F 22.3 °F 57% 30.10 in 10.0 mi East 3.5 mph - N/A   Clear
2:56 AM 34.3 °F 31.4 °F 21.2 °F 59% 30.10 in 10.0 mi ESE 3.5 mph - N/A   Clear
3:15 AM 34.5 °F 31.6 °F 21.7 °F 60% 30.10 in 10.0 mi ESE 3.5 mph - N/A   Clear
3:36 AM 33.4 °F 28.1 °F 21.2 °F 61% 30.10 in 10.0 mi ESE 5.8 mph - N/A   Clear
3:55 AM 33.3 °F 28.9 °F 21.0 °F 61% 30.09 in 10.0 mi SE 4.6 mph - N/A   Clear
4:15 AM 33.4 °F 29.1 °F 20.3 °F 59% 30.09 in 10.0 mi ESE 4.6 mph - N/A   Scattered Clouds
4:36 AM 33.1 °F 28.7 °F 20.1 °F 59% 30.09 in 10.0 mi East 4.6 mph - N/A   Clear
4:55 AM 32.7 °F - 19.9 °F 59% 30.09 in 10.0 mi Calm Calm - N/A   Clear
5:16 AM 32.0 °F - 20.7 °F 63% 30.09 in 10.0 mi Calm Calm - N/A   Clear
5:35 AM 32.0 °F 28.7 °F 21.2 °F 64% 30.09 in 10.0 mi East 3.5 mph - N/A   Clear
5:56 AM 32.0 °F - 21.6 °F 65% 30.09 in 10.0 mi Calm Calm - N/A   Clear
6:15 AM 33.4 °F - 21.2 °F 61% 30.09 in 10.0 mi Calm Calm - N/A   Clear
6:36 AM 35.4 °F - 21.4 °F 57% 30.10 in 10.0 mi Calm Calm - N/A   Clear
6:55 AM 36.5 °F - 22.3 °F 56% 30.10 in 10.0 mi Calm Calm - N/A   Clear
7:15 AM 37.8 °F 35.3 °F 23.9 °F 57% 30.10 in 10.0 mi SE 3.5 mph - N/A   Clear
7:36 AM 41.0 °F 37.1 °F 23.9 °F 51% 30.10 in 10.0 mi SSE 5.8 mph - N/A   Clear
7:55 AM 41.7 °F 38.0 °F 23.4 °F 48% 30.10 in 10.0 mi SSE 5.8 mph - N/A   Clear
8:15 AM 43.3 °F 37.7 °F 23.0 °F 45% 30.10 in 10.0 mi SSE 10.4 mph - N/A   Clear
8:36 AM 45.3 °F 40.6 °F 23.4 °F 42% 30.09 in 10.0 mi SSE 9.2 mph - N/A   Clear
8:55 AM 47.7 °F - 22.8 °F 38% 30.09 in 10.0 mi SSE 8.1 mph - N/A   Clear
9:15 AM 50.0 °F - 22.3 °F 34% 30.08 in 10.0 mi SSE 10.4 mph - N/A   Clear
9:36 AM 52.2 °F - 22.8 °F 32% 30.06 in 10.0 mi SE 8.1 mph - N/A   Clear
9:56 AM 53.2 °F - 22.3 °F 30% 30.05 in 10.0 mi SSE 12.7 mph - N/A   Clear
10:15 AM 55.0 °F - 23.0 °F 29% 30.04 in 10.0 mi South 10.4 mph - N/A   Clear
10:36 AM 56.1 °F - 23.4 °F 28% 30.03 in 10.0 mi SSE 8.1 mph - N/A   Clear
10:56 AM 56.8 °F - 22.6 °F 27% 30.02 in 10.0 mi SSE 12.7 mph 19.6 mph N/A   Scattered Clouds
11:15 AM 57.6 °F - 23.0 °F 26% 30.01 in 10.0 mi SSE 12.7 mph 17.3 mph N/A   Clear
11:36 AM 57.7 °F - 22.6 °F 26% 29.99 in 10.0 mi SSE 11.5 mph 18.4 mph N/A   Mostly Cloudy
11:56 AM 57.7 °F - 23.2 °F 26% 29.98 in 10.0 mi SSE 8.1 mph 17.3 mph N/A   Overcast
12:15 PM 57.2 °F - 23.9 °F 28% 29.98 in 10.0 mi SSE 12.7 mph 18.4 mph N/A   Overcast
12:36 PM 56.3 °F - 26.4 °F 32% 29.98 in 10.0 mi South 13.8 mph 17.3 mph N/A   Overcast
12:56 PM 56.5 °F - 26.6 °F 32% 29.96 in 10.0 mi SSE 12.7 mph - N/A   Overcast
1:15 PM 55.8 °F - 28.6 °F 35% 29.96 in 10.0 mi SSE 11.5 mph - N/A   Overcast
1:36 PM 52.2 °F - 36.0 °F 54% 29.96 in 10.0 mi South 6.9 mph - N/A   Overcast
2:15 PM 54.5 °F - 35.8 °F 49% 29.93 in 10.0 mi SE 11.5 mph 17.3 mph N/A   Overcast
2:36 PM 55.6 °F - 35.6 °F 47% 29.90 in 10.0 mi SE 11.5 mph 16.1 mph N/A   Overcast
3:36 PM 60.4 °F - 35.8 °F 40% 29.86 in 10.0 mi SE 12.7 mph 20.7 mph N/A   Scattered Clouds
3:56 PM 61.7 °F - 35.6 °F 38% 29.84 in 10.0 mi SE 12.7 mph 20.7 mph N/A   Clear
4:15 PM 62.2 °F - 34.3 °F 35% 29.83 in 10.0 mi South 18.4 mph 29.9 mph N/A   Clear
4:35 PM 63.3 °F - 33.8 °F 33% 29.84 in 10.0 mi South 13.8 mph 24.2 mph N/A   Clear
4:56 PM 64.4 °F - 34.9 °F 33% 29.83 in 10.0 mi South 15.0 mph 23.0 mph N/A   Scattered Clouds
5:15 PM 65.3 °F - 35.4 °F 33% 29.82 in 10.0 mi South 15.0 mph 23.0 mph N/A   Scattered Clouds
5:35 PM 64.6 °F - 35.2 °F 34% 29.81 in 10.0 mi South 16.1 mph 23.0 mph N/A   Clear
5:56 PM 64.2 °F - 35.1 °F 34% 29.80 in 10.0 mi SSE 16.1 mph 23.0 mph N/A   Clear
6:35 PM 64.4 °F - 35.4 °F 34% 29.77 in 10.0 mi South 15.0 mph 21.9 mph N/A   Clear
7:15 PM 63.7 °F - 36.0 °F 36% 29.75 in 10.0 mi SSE 11.5 mph 18.4 mph N/A   Clear
7:36 PM 62.8 °F - 36.5 °F 38% 29.73 in 10.0 mi SE 11.5 mph - N/A   Clear
7:55 PM 61.5 °F - 36.1 °F 39% 29.73 in 10.0 mi SE 11.5 mph - N/A   Clear
8:15 PM 60.4 °F - 36.5 °F 41% 29.71 in 10.0 mi SE 10.4 mph - N/A   Clear
8:36 PM 59.9 °F - 36.9 °F 42% 29.71 in 10.0 mi SE 8.1 mph - N/A   Clear
8:55 PM 59.5 °F - 37.4 °F 44% 29.70 in 10.0 mi SE 8.1 mph 16.1 mph N/A   Scattered Clouds
9:15 PM 58.8 °F - 37.6 °F 45% 29.69 in 10.0 mi SE 10.4 mph - N/A   Mostly Cloudy
9:36 PM 58.8 °F - 37.8 °F 46% 29.69 in 10.0 mi SE 11.5 mph - N/A   Scattered Clouds
9:56 PM 58.5 °F - 37.8 °F 46% 29.69 in 10.0 mi SE 10.4 mph - N/A   Mostly Cloudy
10:15 PM 58.3 °F - 37.9 °F 47% 29.68 in 10.0 mi SE 9.2 mph - N/A   Scattered Clouds
10:36 PM 57.6 °F - 38.3 °F 49% 29.67 in 10.0 mi SE 9.2 mph - N/A   Scattered Clouds
10:56 PM 57.2 °F - 38.5 °F 50% 29.66 in 10.0 mi SE 9.2 mph - N/A   Mostly Cloudy
11:15 PM 57.2 °F - 39.2 °F 51% 29.66 in 10.0 mi SSE 9.2 mph 16.1 mph N/A   Mostly Cloudy
11:36 PM 57.0 °F - 39.6 °F 52% 29.65 in 10.0 mi SSE 9.2 mph - N/A   Mostly Cloudy
11:56 PM 56.5 °F - 39.9 °F 54% 29.66 in 10.0 mi SSE 8.1 mph - N/A   Mostly Cloudy